{"data":{"norad_id":37846,"epoch":"2026-05-22T00:55:44.329728Z","epoch_age_seconds":327517,"freshness":"STALE","line1":"1 37846U 11060A   26142.03870752 -.00000087  00000+0  00000+0 0  9997","line2":"2 37846  57.0040 342.4699 0003643  41.9521 318.0951  1.70475642 90676","mean_motion":1.70475642,"eccentricity":0.0003643,"inclination_deg":57.004,"raan_deg":342.4699,"arg_perigee_deg":41.9521,"mean_anomaly_deg":318.0951,"bstar":0,"rev_number":9067,"period_min":844.69545508443,"perigee_km":23211.209658859,"apogee_km":23232.776313567,"semimajor_km":29600.129986213,"source":"CELESTRAK","updated_at":"2026-05-25T13:38:24.051184Z"}}